Stations météo

Publicité
Fehmarn, Allemagne (10055): Température de l'air & dewpoint: 13.01.2018 06:00:00 - 19.01.2018 06:00:00 (CET)Fehmarn, Allemagne (10055): Température de l'air 5cm & Température de l'air -5cm: 13.01.2018 06:00:00 - 19.01.2018 06:00:00 (CET)Fehmarn, Allemagne (10055): Température de l'air -20cm & Température de l'air -100cm: 13.01.2018 06:00:00 - 19.01.2018 06:00:00 (CET)Fehmarn, Allemagne (10055): Vitesse du vent & gusts: 13.01.2018 06:00:00 - 19.01.2018 06:00:00 (CET)Fehmarn, Allemagne (10055): Direction du vent: 13.01.2018 06:00:00 - 19.01.2018 06:00:00 (CET)Fehmarn, Allemagne (10055): reduced air pressure: 13.01.2018 06:00:00 - 19.01.2018 06:00:00 (CET)Fehmarn, Allemagne (10055): visibility: 13.01.2018 06:00:00 - 19.01.2018 06:00:00 (CET)Fehmarn, Allemagne (10055): Ensoleillement: 13.01.2018 06:00:00 - 19.01.2018 06:00:00 (CET)Fehmarn, Allemagne (10055): Quantités de précipitations: 13.01.2018 06:00:00 - 19.01.2018 06:00:00 (CET)
Date & Time tt [°C] td [°C] tt 5cm [°C] tt -5cm [°C] tt -20cm [°C] tt -100cm [°C] ff [km/h] ff [knt] fx [km/h] fx [knt] dd ppp [hPa] vv [km] sd [min] rr [mm]
19.01.2018 06:00:00 2,2 1,0 1,7 1,5 2,0 4,7 12 7 26 14 WSW 1000,3 21 0 0,3
19.01.2018 05:00:00 2,4 0,8 2,1 1,6 1,9 4,7 17 9 25 13 WSW 999,6 31 0 0,0
19.01.2018 04:00:00 2,4 0,7 2,1 1,5 1,9 4,7 19 11 29 16 W 999,2 37 0 0,0
19.01.2018 03:00:00 2,4 1,3 2,0 1,4 1,9 4,7 21 12 26 14 WSW 999,0 16 0 0,0
19.01.2018 02:00:00 2,3 0,1 1,8 1,4 1,9 4,7 14 8 26 14 WNW 998,5 32 0 0,0
19.01.2018 01:00:00 1,9 -0,1 1,5 1,4 1,9 4,7 24 13 33 18 W 998,2 16 0 0,0
19.01.2018 00:00:00 2,3 -0,2 1,8 1,4 1,9 4,7 22 12 33 18 WNW 997,6 20 0 0,0
18.01.2018 23:00:00 2,6 0,0 2,0 1,5 1,9 4,7 26 14 37 20 WNW 996,9 31 0 0,0
18.01.2018 22:00:00 2,8 0,3 2,1 1,6 1,9 4,7 29 16 37 20 WNW 996,0 27 0 0,0
18.01.2018 21:00:00 2,7 1,3 2,3 1,5 1,8 4,7 29 16 36 19 NW 995,3 31 0 0,0
18.01.2018 20:00:00 2,7 1,3 2,1 1,5 1,8 4,7 27 15 35 19 NW 994,2 12 0 0,0
18.01.2018 19:00:00 2,3 1,1 1,8 1,4 1,8 4,7 33 18 39 21 NW 992,8 18 0 0,0
18.01.2018 18:00:00 2,3 1,2 1,8 1,4 1,7 4,7 29 16 46 25 N 991,3 19 0 0,0
18.01.2018 17:00:00 2,3 1,0 1,7 1,3 1,7 4,7 36 19 49 27 N 989,0 26 0 0,0
18.01.2018 16:00:00 2,0 0,7 1,5 1,3 1,7 4,7 38 20 54 29 NNE 986,2 31 0 0,1
18.01.2018 15:00:00 1,5 0,6 1,3 1,1 1,7 4,7 40 22 55 30 NE 984,0 8 0 0,8
18.01.2018 14:00:00 1,2 0,4 0,9 0,8 1,7 4,7 39 21 50 27 ENE 982,9 3,1 0 1,1
18.01.2018 13:00:00 0,8 0,0 0,2 0,6 1,8 4,7 29 16 40 22 E 983,4 2,0 0 1,2
18.01.2018 12:00:00 0,9 0,1 0,4 1,2 1,8 4,7 25 13 40 21 ESE 985,0 3,9 0 0,8
18.01.2018 11:00:00 1,5 0,4 1,2 1,3 1,7 4,7 24 13 39 21 SE 986,7 4,7 0 0,5
18.01.2018 10:00:00 2,2 0,7 1,8 1,2 1,7 4,7 23 12 42 23 SSE 988,7 10 0 0,0
18.01.2018 09:00:00 2,1 0,5 1,4 1,0 1,7 4,7 18 10 29 16 S 990,5 11 0 0,0
18.01.2018 08:00:00 2,2 0,6 1,5 1,0 1,7 4,7 16 9 27 15 S 992,2 10 0 0,0
18.01.2018 07:00:00 2,4 0,8 1,7 1,0 1,7 4,7 16 9 47 26 SSW 993,6 14 0 0,0
18.01.2018 06:00:00 2,5 0,5 1,3 1,0 1,7 4,7 33 18 51 27 SW 994,7 31 0 0,0
18.01.2018 05:00:00 2,3 0,7 1,6 0,7 1,7 4,7 34 18 52 28 SW 995,5 24 0 0,0
18.01.2018 04:00:00 2,2 0,5 1,1 1,0 1,7 4,7 29 16 48 26 SW 996,2 37 0 0,1
18.01.2018 03:00:00 2,4 0,9 1,6 1,1 1,8 4,7 33 18 56 31 SW 996,8 20 0 0,0
18.01.2018 02:00:00 2,7 1,0 1,5 0,9 1,8 4,7 35 19 49 26 WSW 996,9 27 0 0,0
18.01.2018 01:00:00 2,8 1,1 1,6 1,1 1,8 4,7 25 14 57 31 SW 997,1 24 0 0,4
18.01.2018 00:00:00 2,9 0,9 2,0 0,9 1,8 4,7 27 15 53 29 WSW 996,9 33 0 0,0
17.01.2018 23:00:00 2,9 0,7 2,2 1,0 1,8 4,7 37 20 55 30 WSW 996,6 41 0 0,0
17.01.2018 22:00:00 2,9 0,9 2,0 0,8 1,9 4,7 33 18 48 26 WSW 996,3 36 0 0,0
17.01.2018 21:00:00 2,7 0,3 1,7 0,8 1,9 4,7 38 20 50 27 WSW 995,8 38 0 0,0
17.01.2018 20:00:00 2,3 0,3 1,4 0,8 2,0 4,7 33 18 49 26 WSW 995,3 28 0 0,0
17.01.2018 19:00:00 2,4 0,1 1,4 1,2 2,1 4,7 38 20 51 27 WSW 994,7 47 0 0,0
17.01.2018 18:00:00 2,6 0,0 2,0 1,3 2,1 4,7 41 22 53 29 WSW 994,0 45 0 0,0
17.01.2018 17:00:00 3,1 0,3 2,6 1,8 2,1 4,7 40 22 54 29 W 993,3 47 0 0,0
17.01.2018 16:00:00 2,9 0,2 2,6 1,9 2,1 4,7 47 26 56 30 W 992,5 50 16 0,0
17.01.2018 15:00:00 2,6 0,3 1,9 2,0 2,0 4,7 38 20 48 26 WSW 991,4 31 25 0,0
17.01.2018 14:00:00 2,9 0,4 2,6 2,1 1,9 4,7 37 20 52 28 WSW 990,8 52 0 0,0
17.01.2018 13:00:00 2,7 0,5 2,6 2,2 1,8 4,7 40 22 54 29 WSW 990,3 49 16 0,0
17.01.2018 12:00:00 - - - 1,9 1,7 4,7 - - - - - - - - 0,0
17.01.2018 11:00:00 - - - 1,6 1,7 4,7 - - 42 23 - - - 0 0,0
17.01.2018 10:00:00 2,3 0,7 2,2 1,3 1,6 4,7 32 18 41 22 WSW 988,7 14 0 0,0
17.01.2018 09:00:00 2,2 0,6 1,9 1,1 1,6 4,7 35 19 45 24 WSW 988,1 12 0 0,0
17.01.2018 08:00:00 2,1 0,6 1,8 1,1 1,6 4,7 34 18 42 23 WSW 987,5 19 0 0,0
17.01.2018 07:00:00 2,2 0,2 1,9 1,0 1,6 4,7 30 16 49 26 WSW 986,7 23 0 0,0
17.01.2018 06:00:00 2,2 0,5 1,7 0,9 1,6 4,8 33 18 49 26 WSW 986,4 23 0 0,0
17.01.2018 05:00:00 2,1 0,5 1,7 0,8 1,6 4,8 35 19 47 25 WSW 986,4 22 0 0,0
17.01.2018 04:00:00 1,9 0,8 1,3 0,6 1,6 4,8 29 16 41 22 WSW 986,6 27 0 0,0
17.01.2018 03:00:00 1,8 0,6 0,8 0,8 1,6 4,8 26 14 49 26 SW 986,5 25 0 0,0
17.01.2018 02:00:00 2,2 0,5 1,4 0,9 1,7 4,8 38 20 51 27 WSW 986,7 24 0 0,0
17.01.2018 01:00:00 2,2 0,9 1,6 0,8 1,7 4,8 34 18 50 27 WSW 986,8 24 0 0,0
17.01.2018 00:00:00 2,2 1,0 1,5 0,8 1,7 4,8 40 22 52 28 WSW 986,7 57 0 0,0
16.01.2018 23:00:00 2,5 1,1 2,1 0,9 1,8 4,8 35 19 48 26 WSW 986,9 26 0 0,0
16.01.2018 22:00:00 2,2 1,0 1,0 0,6 1,8 4,8 31 17 50 27 WSW 986,7 23 0 0,0
16.01.2018 21:00:00 2,1 1,0 1,0 0,8 1,9 4,8 32 18 46 25 WSW 986,4 27 0 0,0
16.01.2018 20:00:00 2,2 1,0 1,1 1,2 2,0 4,8 31 17 45 24 WSW 986,3 46 0 0,0
16.01.2018 19:00:00 2,3 1,0 1,5 1,5 2,0 4,8 37 20 51 28 WSW 986,1 36 0 0,0
16.01.2018 18:00:00 2,9 1,5 2,3 1,7 2,1 4,8 35 19 48 26 WSW 985,8 59 0 0,0
16.01.2018 17:00:00 3,3 1,5 2,4 1,9 2,1 4,8 34 18 42 23 W 985,7 66 0 0,0
16.01.2018 16:00:00 3,7 2,2 3,1 2,2 2,0 4,8 21 11 35 19 SW 985,1 34 0 0,0
16.01.2018 15:00:00 3,7 1,8 2,8 2,8 1,9 4,8 26 14 36 19 SW 985,0 46 21 0,0
16.01.2018 14:00:00 4,7 2,5 5,1 3,1 1,7 4,9 22 12 36 19 SW 984,8 30 0 0,0
16.01.2018 13:00:00 4,5 2,4 4,4 2,9 1,4 4,9 19 10 33 18 SSW 985,1 36 1 0,0
16.01.2018 12:00:00 4,3 2,5 3,9 2,4 1,3 4,9 15 8 34 18 SSW 985,5 41 0 0,0
16.01.2018 11:00:00 4,0 2,4 3,3 1,7 1,1 4,9 15 8 30 16 SSW 985,7 33 0 0,0
16.01.2018 10:00:00 4,0 2,6 3,3 1,2 1,0 4,9 15 8 31 17 SSW 985,6 26 1 0,0
16.01.2018 09:00:00 4,0 2,4 3,0 0,8 0,9 4,9 16 9 32 17 SSW 985,4 26 0 0,0
16.01.2018 08:00:00 3,8 2,3 2,3 0,3 0,8 4,9 18 10 33 18 SSW 985,3 31 0 0,0
16.01.2018 07:00:00 3,7 2,1 2,2 0,2 0,8 4,9 22 12 37 20 SW 985,1 57 0 0,0
16.01.2018 06:00:00 4,6 2,7 3,0 0,0 0,7 4,9 26 14 40 22 SW 985,0 48 0 0,0
16.01.2018 05:00:00 4,3 3,1 3,4 -0,1 0,7 4,9 18 10 39 21 SSW 984,9 30 0 0,0
16.01.2018 04:00:00 3,7 2,9 3,0 -0,2 0,7 4,9 27 15 56 31 SSW 985,1 11 0 0,1
16.01.2018 03:00:00 2,8 1,8 2,1 -0,2 0,7 4,9 37 20 70 38 S 985,3 10 0 0,3
16.01.2018 02:00:00 2,3 1,5 1,7 -0,2 0,7 4,9 46 25 69 37 S 985,8 4,5 0 0,5
16.01.2018 01:00:00 2,5 1,3 1,8 -0,2 0,7 5,0 44 24 63 34 SSE 987,5 5 0 0,2
16.01.2018 00:00:00 2,8 1,3 2,0 -0,2 0,7 5,0 42 23 62 33 SSE 989,2 9 0 0,1
15.01.2018 23:00:00 2,6 1,1 1,9 -0,2 0,7 5,0 42 23 64 35 SSE 991,1 4,9 0 0,0
15.01.2018 22:00:00 2,8 0,9 2,0 -0,3 0,7 5,0 39 21 61 33 SSE 993,0 8 0 0,1
15.01.2018 21:00:00 2,6 0,9 1,7 -0,3 0,7 5,0 38 20 61 33 SSE 994,9 8 0 0,0
15.01.2018 20:00:00 2,9 0,4 2,3 -0,3 0,7 5,0 40 21 56 30 SSE 996,6 13 0 0,1
15.01.2018 19:00:00 2,4 0,2 1,5 -0,3 0,7 5,0 40 22 57 31 SSE 998,4 9 0 0,0
15.01.2018 18:00:00 2,4 -0,3 1,8 -0,3 0,7 5,0 36 19 58 32 SSE 1000,2 11 0 0,0
15.01.2018 17:00:00 2,4 -0,6 1,9 -0,3 0,7 5,0 36 19 56 30 SSE 1001,5 14 0 0,0
15.01.2018 16:00:00 2,0 -0,9 1,5 -0,3 0,7 5,0 36 19 54 29 SSE 1003,2 14 0 0,0
15.01.2018 15:00:00 1,9 -1,1 1,6 -0,4 0,7 5,0 36 19 54 29 SSE 1004,7 13 0 0,0
15.01.2018 14:00:00 1,5 -1,5 1,4 -0,4 0,7 5,0 37 20 54 29 SSE 1006,5 13 1 0,0
15.01.2018 13:00:00 1,4 -1,7 1,3 -0,4 0,7 5,0 40 21 57 31 SSE 1007,9 12 1 0,0
15.01.2018 12:00:00 1,0 -2,0 0,9 -0,5 0,7 5,0 40 22 61 33 SSE 1009,7 13 0 0,0
15.01.2018 11:00:00 0,7 -2,3 0,4 -0,6 0,7 5,0 39 21 61 33 SSE 1011,3 12 27 0,0
15.01.2018 10:00:00 0,5 -2,4 0,3 -0,8 0,7 5,1 38 20 55 30 SSE 1012,4 8 32 0,0
15.01.2018 09:00:00 0,1 -2,8 -0,7 -1,0 0,7 5,1 38 21 52 28 SSE 1013,8 11 0 0,0
15.01.2018 08:00:00 -0,2 -3,0 -1,1 -1,1 0,8 5,1 30 16 51 28 SSE 1015,0 11 0 0,0
15.01.2018 07:00:00 0,0 -3,0 -1,0 -1,1 0,8 5,1 32 18 51 27 SSE 1016,1 11 0 0,0
15.01.2018 06:00:00 -0,3 -3,0 -1,3 -1,1 0,8 5,1 25 13 50 27 SSE 1017,3 11 0 0,0
15.01.2018 05:00:00 -0,6 -3,2 -1,6 -1,1 0,9 5,1 28 15 45 24 SSE 1018,6 11 0 0,0
15.01.2018 04:00:00 -0,3 -3,1 -1,3 -1,0 0,9 5,1 31 17 48 26 SSE 1019,6 12 0 0,0
15.01.2018 03:00:00 -0,6 -3,3 -1,5 -1,0 0,9 5,1 30 16 46 25 SSE 1020,4 11 0 0,0
15.01.2018 02:00:00 -0,9 -3,3 -2,0 -0,9 1,0 5,1 27 15 41 22 SSE 1021,6 10 0 0,0
15.01.2018 01:00:00 -1,1 -3,5 -2,1 -0,8 1,0 5,1 25 13 36 20 SSE 1022,9 10 0 0,0
15.01.2018 00:00:00 -1,2 -3,7 -2,2 -0,7 1,1 5,1 24 13 37 20 SSE 1024,0 10 0 0,0
14.01.2018 23:00:00 -1,3 -3,9 -2,2 -0,6 1,1 5,1 26 14 39 21 SSE 1024,8 11 0 0,0
14.01.2018 22:00:00 -1,2 -3,9 -2,1 -0,5 1,1 5,1 21 12 34 19 SSE 1025,7 11 0 0,0
14.01.2018 21:00:00 -1,3 -4,0 -2,2 -0,3 1,2 5,1 21 12 33 18 SE 1026,0 11 0 0,0
14.01.2018 20:00:00 -1,7 -4,1 -2,6 -0,2 1,2 5,1 23 13 37 20 SE 1026,2 10 0 0,0
14.01.2018 19:00:00 -1,7 -4,1 -2,4 -0,1 1,2 5,1 26 14 37 20 SE 1026,5 10 0 0,0
14.01.2018 18:00:00 -1,5 -3,8 -2,3 0,0 1,2 5,1 27 14 37 20 SE 1026,9 10 0 0,0
14.01.2018 17:00:00 -1,1 -3,5 -2,0 0,0 1,3 5,1 24 13 39 21 SE 1027,4 10 0 0,0
14.01.2018 16:00:00 -0,5 -3,6 -1,3 0,1 1,3 5,2 26 14 36 19 ESE 1027,6 12 35 0,0
14.01.2018 15:00:00 0,0 -3,0 -0,7 0,1 1,3 5,2 22 12 32 18 SE 1028,1 11 0 0,0
14.01.2018 14:00:00 0,1 -3,5 0,0 0,1 1,3 5,2 24 13 34 18 SE 1028,3 12 60 0,0
14.01.2018 13:00:00 0,4 -3,2 0,6 0,1 1,3 5,2 24 13 39 21 SE 1028,8 11 56 0,0
14.01.2018 12:00:00 0,1 -3,7 0,3 0,1 1,3 5,2 26 14 40 22 SE 1029,5 12 35 0,0
14.01.2018 11:00:00 0,1 -3,9 0,0 0,1 1,3 5,2 27 15 42 23 SE 1029,9 14 10 0,0
14.01.2018 10:00:00 -0,1 -3,9 -0,4 0,1 1,4 5,2 28 15 43 23 SE 1029,8 12 0 0,0
14.01.2018 09:00:00 0,1 -4,1 -0,3 0,1 1,4 5,2 29 15 41 22 SE 1029,8 15 0 0,0
14.01.2018 08:00:00 0,5 -4,9 0,0 0,1 1,4 5,2 23 12 37 20 SSE 1029,6 19 0 0,0
14.01.2018 07:00:00 0,3 -4,8 -0,1 0,1 1,4 5,2 24 13 40 21 SE 1029,9 18 0 0,0
14.01.2018 06:00:00 0,2 -5,0 -0,2 0,1 1,4 5,2 27 14 40 21 SE 1030,2 18 0 0,0
14.01.2018 05:00:00 0,1 -4,9 -0,2 0,2 1,5 5,2 27 14 41 22 SE 1030,3 16 0 0,0
14.01.2018 04:00:00 0,1 -4,5 -0,2 0,2 1,5 5,2 25 13 37 20 SE 1030,6 14 0 0,0
14.01.2018 03:00:00 0,2 -4,4 -0,1 0,2 1,5 5,2 23 13 36 19 SE 1030,7 15 0 0,0
14.01.2018 02:00:00 0,0 -4,5 -0,3 0,2 1,5 5,2 26 14 39 21 SE 1030,9 17 0 0,0
14.01.2018 01:00:00 0,1 -5,1 -0,2 0,2 1,6 5,2 23 12 36 19 SE 1031,4 22 0 0,0
14.01.2018 00:00:00 0,0 -4,8 -0,3 0,2 1,6 5,2 24 13 39 21 SE 1031,8 21 0 0,0
13.01.2018 23:00:00 0,0 -5,1 -0,3 0,2 1,6 5,2 21 12 46 25 SE 1031,8 22 0 0,0
13.01.2018 22:00:00 -0,3 -5,3 -0,5 0,3 1,7 5,2 28 15 42 23 SE 1032,0 21 0 0,0
13.01.2018 21:00:00 -0,5 -4,8 -0,7 0,3 1,7 5,2 26 14 48 26 SE 1032,2 18 0 0,0
13.01.2018 20:00:00 -0,6 -4,3 -0,8 0,3 1,8 5,2 21 11 39 21 ESE 1032,3 16 0 0,0
13.01.2018 19:00:00 -0,5 -4,7 -0,6 0,3 1,9 5,2 29 15 44 24 SE 1032,2 22 0 0,0
13.01.2018 18:00:00 -0,1 -4,1 -0,4 0,2 2,0 5,2 22 12 40 22 SE 1032,4 25 0 0,0
13.01.2018 17:00:00 0,0 -3,2 -0,3 0,4 2,1 5,2 22 12 35 19 SE 1032,6 24 0 0,0
13.01.2018 16:00:00 0,4 -2,5 0,1 1,0 2,1 5,2 26 14 36 20 SE 1032,2 18 0 0,0
13.01.2018 15:00:00 1,2 -1,6 1,1 1,4 2,1 5,2 23 13 36 19 SE 1032,2 10 0 0,0
13.01.2018 14:00:00 1,3 -1,4 1,3 1,4 2,0 5,2 26 14 36 19 SE 1032,4 9 0 0,0
13.01.2018 13:00:00 1,1 -0,6 1,0 1,1 2,1 5,2 21 11 32 18 SE 1032,7 5 0 0,0
13.01.2018 12:00:00 1,0 -0,8 0,9 1,1 2,1 5,2 24 13 39 21 SE 1032,9 4,9 0 0,0
13.01.2018 11:00:00 1,0 -0,8 0,9 1,1 2,1 5,2 24 13 34 19 SE 1032,9 5 0 0,0
13.01.2018 10:00:00 1,0 -0,6 0,9 1,0 2,1 5,2 23 12 34 18 SE 1032,6 4,7 0 0,0
13.01.2018 09:00:00 1,0 -0,5 0,8 1,0 2,2 5,2 21 12 34 19 SE 1032,3 4,4 0 0,0
13.01.2018 08:00:00 0,9 -0,4 0,8 1,1 2,2 5,2 26 14 37 20 SE 1031,9 4,2 0 0,0
13.01.2018 07:00:00 1,1 -0,1 0,9 1,2 2,2 5,2 24 13 36 20 ESE 1032,2 4,3 0 0,0
13.01.2018 06:00:00 1,2 -0,2 1,1 1,3 2,3 5,2 23 12 34 18 SE 1032,0 4,7 0 0,0

tt = Température de l'air
td = dewpoint
tt 5cm = Température de l'air 5cm
tt -5cm = Température de l'air -5cm
tt -20cm = Température de l'air -20cm
tt -100cm = Température de l'air -100cm
ff = Vitesse du vent
fx = gusts
dd = Direction du vent
ppp = reduced air pressure
vv = visibility
sd = Ensoleillement
rr = Quantités de précipitations

stations d'obs. à proximité